Time,TemperatureF,DewpointF,PressureIn,WindDirection,WindDirectionDegrees,WindSpeedMPH,WindSpeedGustMPH,Humidity,HourlyPrecipIn,Conditions,Clouds,dailyrainin,SoftwareType,DateUTC
2013-03-01 00:02:00,49.0,-99.9,-100.00,North,-999,-999.0,-999.0,-999,0.08,,,1.33,,2013-03-01 08:02:00,
2013-03-01 00:12:00,49.0,-99.9,-100.00,North,-999,-999.0,-999.0,-999,0.08,,,1.33,,2013-03-01 08:12:00,
2013-03-01 00:23:00,49.0,-99.9,-100.00,North,-999,-999.0,-999.0,-999,0.08,,,1.33,,2013-03-01 08:23:00,
2013-03-01 00:30:00,49.0,-99.9,-100.00,North,-999,-999.0,-999.0,-999,0.02,,,1.31,,2013-03-01 08:30:00,
2013-03-01 01:03:00,49.0,-99.9,-100.00,North,-999,-999.0,-999.0,-999,0.02,,,1.31,,2013-03-01 09:03:00,
2013-03-01 01:12:00,49.0,-99.9,-100.00,North,-999,-999.0,-999.0,-999,0.02,,,1.31,,2013-03-01 09:12:00,
2013-03-01 01:22:00,49.0,-99.9,-100.00,North,-999,-999.0,-999.0,-999,0.02,,,1.31,,2013-03-01 09:22:00,
2013-03-01 01:30:00,49.0,-99.9,-100.00,North,-999,-999.0,-999.0,-999,0.03,,,1.31,,2013-03-01 09:30:00,
2013-03-01 02:03:00,49.0,-99.9,-100.00,North,-999,-999.0,-999.0,-999,0.03,,,1.31,,2013-03-01 10:03:00,
2013-03-01 02:12:00,49.0,-99.9,-100.00,North,-999,-999.0,-999.0,-999,0.03,,,1.31,,2013-03-01 10:12:00,
2013-03-01 02:22:00,49.0,-99.9,-100.00,North,-999,-999.0,-999.0,-999,0.03,,,1.31,,2013-03-01 10:22:00,
2013-03-01 02:30:00,49.0,-99.9,-100.00,North,-999,-999.0,-999.0,-999,0.02,,,1.29,,2013-03-01 10:30:00,
2013-03-01 03:02:00,49.0,-99.9,-100.00,North,-999,-999.0,-999.0,-999,0.02,,,1.29,,2013-03-01 11:02:00,
2013-03-01 03:12:00,49.0,-99.9,-100.00,North,-999,-999.0,-999.0,-999,0.02,,,1.29,,2013-03-01 11:12:00,
2013-03-01 03:23:00,49.0,-99.9,-100.00,North,-999,-999.0,-999.0,-999,0.02,,,1.29,,2013-03-01 11:23:00,
2013-03-01 03:30:00,49.0,-99.9,-100.00,North,-999,-999.0,-999.0,-999,0.00,,,1.28,,2013-03-01 11:30:00,
2013-03-01 04:02:00,49.0,-99.9,-100.00,North,-999,-999.0,-999.0,-999,0.00,,,1.28,,2013-03-01 12:02:00,
2013-03-01 04:11:00,49.0,-99.9,-100.00,North,-999,-999.0,-999.0,-999,0.00,,,1.28,,2013-03-01 12:11:00,
2013-03-01 04:22:00,49.0,-99.9,-100.00,North,-999,-999.0,-999.0,-999,0.00,,,1.28,,2013-03-01 12:22:00,
2013-03-01 04:30:00,48.0,-99.9,-100.00,North,-999,-999.0,-999.0,-999,0.00,,,1.23,,2013-03-01 12:30:00,
2013-03-01 05:02:00,48.0,-99.9,-100.00,North,-999,-999.0,-999.0,-999,0.00,,,1.23,,2013-03-01 13:02:00,
2013-03-01 05:12:00,48.0,-99.9,-100.00,North,-999,-999.0,-999.0,-999,0.00,,,1.23,,2013-03-01 13:12:00,
2013-03-01 05:22:00,48.0,-99.9,-100.00,North,-999,-999.0,-999.0,-999,0.00,,,1.23,,2013-03-01 13:22:00,
2013-03-01 05:30:00,48.0,-99.9,-100.00,North,-999,-999.0,-999.0,-999,0.01,,,1.18,,2013-03-01 13:30:00,
2013-03-01 06:02:00,48.0,-99.9,-100.00,North,-999,-999.0,-999.0,-999,0.01,,,1.18,,2013-03-01 14:02:00,
2013-03-01 06:12:00,48.0,-99.9,-100.00,North,-999,-999.0,-999.0,-999,0.01,,,1.18,,2013-03-01 14:12:00,
2013-03-01 06:22:00,48.0,-99.9,-100.00,North,-999,-999.0,-999.0,-999,0.01,,,1.18,,2013-03-01 14:22:00,
2013-03-01 06:30:00,48.0,-99.9,-100.00,North,-999,-999.0,-999.0,-999,0.00,,,1.11,,2013-03-01 14:30:00,
2013-03-01 07:02:00,48.0,-99.9,-100.00,North,-999,-999.0,-999.0,-999,0.00,,,1.11,,2013-03-01 15:02:00,
2013-03-01 07:12:00,48.0,-99.9,-100.00,North,-999,-999.0,-999.0,-999,0.00,,,1.11,,2013-03-01 15:12:00,
2013-03-01 07:22:00,48.0,-99.9,-100.00,North,-999,-999.0,-999.0,-999,0.00,,,1.11,,2013-03-01 15:22:00,
2013-03-01 07:30:00,48.0,-99.9,-100.00,North,-999,-999.0,-999.0,-999,0.02,,,1.07,,2013-03-01 15:30:00,
2013-03-01 08:02:00,48.0,-99.9,-100.00,North,-999,-999.0,-999.0,-999,0.02,,,1.07,,2013-03-01 16:02:00,
2013-03-01 08:11:00,48.0,-99.9,-100.00,North,-999,-999.0,-999.0,-999,0.02,,,1.07,,2013-03-01 16:11:00,
2013-03-01 08:22:00,48.0,-99.9,-100.00,North,-999,-999.0,-999.0,-999,0.02,,,1.07,,2013-03-01 16:22:00,
2013-03-01 08:30:00,48.0,-99.9,-100.00,North,-999,-999.0,-999.0,-999,0.01,,,0.97,,2013-03-01 16:30:00,
2013-03-01 09:02:00,48.0,-99.9,-100.00,North,-999,-999.0,-999.0,-999,0.01,,,0.97,,2013-03-01 17:02:00,
2013-03-01 09:11:00,48.0,-99.9,-100.00,North,-999,-999.0,-999.0,-999,0.01,,,0.97,,2013-03-01 17:11:00,
2013-03-01 09:22:00,48.0,-99.9,-100.00,North,-999,-999.0,-999.0,-999,0.01,,,0.97,,2013-03-01 17:22:00,
2013-03-01 09:30:00,49.0,-99.9,-100.00,North,-999,-999.0,-999.0,-999,0.01,,,0.91,,2013-03-01 17:30:00,
2013-03-01 10:02:00,49.0,-99.9,-100.00,North,-999,-999.0,-999.0,-999,0.01,,,0.91,,2013-03-01 18:02:00,
2013-03-01 10:12:00,49.0,-99.9,-100.00,North,-999,-999.0,-999.0,-999,0.01,,,0.91,,2013-03-01 18:12:00,
2013-03-01 10:22:00,49.0,-99.9,-100.00,North,-999,-999.0,-999.0,-999,0.01,,,0.91,,2013-03-01 18:22:00,
2013-03-01 10:30:00,50.0,-99.9,-100.00,North,-999,-999.0,-999.0,-999,0.00,,,0.84,,2013-03-01 18:30:00,
2013-03-01 11:02:00,50.0,-99.9,-100.00,North,-999,-999.0,-999.0,-999,0.00,,,0.84,,2013-03-01 19:02:00,
2013-03-01 11:11:00,50.0,-99.9,-100.00,North,-999,-999.0,-999.0,-999,0.00,,,0.84,,2013-03-01 19:11:00,
2013-03-01 11:22:00,50.0,-99.9,-100.00,North,-999,-999.0,-999.0,-999,0.00,,,0.84,,2013-03-01 19:22:00,
2013-03-01 11:30:00,50.0,-99.9,-100.00,North,-999,-999.0,-999.0,-999,0.00,,,-99.99,,2013-03-01 19:30:00,
2013-03-01 12:01:00,50.0,-99.9,-100.00,North,-999,-999.0,-999.0,-999,0.00,,,-99.99,,2013-03-01 20:01:00,
2013-03-01 12:11:00,50.0,-99.9,-100.00,North,-999,-999.0,-999.0,-999,0.00,,,-99.99,,2013-03-01 20:11:00,
2013-03-01 12:22:00,50.0,-99.9,-100.00,North,-999,-999.0,-999.0,-999,0.00,,,-99.99,,2013-03-01 20:22:00,
2013-03-01 12:30:00,52.0,-99.9,-100.00,North,-999,-999.0,-999.0,-999,0.00,,,0.67,,2013-03-01 20:30:00,
2013-03-01 13:02:00,52.0,-99.9,-100.00,North,-999,-999.0,-999.0,-999,0.00,,,0.67,,2013-03-01 21:02:00,
2013-03-01 13:12:00,52.0,-99.9,-100.00,North,-999,-999.0,-999.0,-999,0.00,,,0.67,,2013-03-01 21:12:00,
2013-03-01 13:22:00,52.0,-99.9,-100.00,North,-999,-999.0,-999.0,-999,0.00,,,0.67,,2013-03-01 21:22:00,
2013-03-01 13:30:00,53.0,-99.9,-100.00,North,-999,-999.0,-999.0,-999,0.00,,,0.63,,2013-03-01 21:30:00,
2013-03-01 14:01:00,53.0,-99.9,-100.00,North,-999,-999.0,-999.0,-999,0.00,,,0.63,,2013-03-01 22:01:00,
2013-03-01 14:12:00,53.0,-99.9,-100.00,North,-999,-999.0,-999.0,-999,0.00,,,0.63,,2013-03-01 22:12:00,
2013-03-01 14:22:00,53.0,-99.9,-100.00,North,-999,-999.0,-999.0,-999,0.00,,,0.63,,2013-03-01 22:22:00,
2013-03-01 14:30:00,55.0,-99.9,-100.00,North,-999,-999.0,-999.0,-999,0.00,,,0.55,,2013-03-01 22:30:00,
2013-03-01 15:02:00,55.0,-99.9,-100.00,North,-999,-999.0,-999.0,-999,0.00,,,0.55,,2013-03-01 23:02:00,
2013-03-01 15:11:00,55.0,-99.9,-100.00,North,-999,-999.0,-999.0,-999,0.00,,,0.55,,2013-03-01 23:11:00,
2013-03-01 15:22:00,55.0,-99.9,-100.00,North,-999,-999.0,-999.0,-999,0.00,,,0.55,,2013-03-01 23:22:00,
2013-03-01 15:30:00,53.0,-99.9,-100.00,North,-999,-999.0,-999.0,-999,0.00,,,0.47,,2013-03-01 23:30:00,
2013-03-01 16:02:00,53.0,-99.9,-100.00,North,-999,-999.0,-999.0,-999,0.00,,,0.47,,2013-03-02 00:02:00,
2013-03-01 16:12:00,53.0,-99.9,-100.00,North,-999,-999.0,-999.0,-999,0.00,,,0.47,,2013-03-02 00:12:00,
2013-03-01 16:22:00,53.0,-99.9,-100.00,North,-999,-999.0,-999.0,-999,0.00,,,0.47,,2013-03-02 00:22:00,
2013-03-01 16:30:00,52.0,-99.9,-100.00,North,-999,-999.0,-999.0,-999,0.00,,,0.37,,2013-03-02 00:30:00,
2013-03-01 17:01:00,52.0,-99.9,-100.00,North,-999,-999.0,-999.0,-999,0.00,,,0.37,,2013-03-02 01:01:00,
2013-03-01 17:11:00,52.0,-99.9,-100.00,North,-999,-999.0,-999.0,-999,0.00,,,0.37,,2013-03-02 01:11:00,
2013-03-01 17:22:00,52.0,-99.9,-100.00,North,-999,-999.0,-999.0,-999,0.00,,,0.37,,2013-03-02 01:22:00,
2013-03-01 17:30:00,51.0,-99.9,-100.00,North,-999,-999.0,-999.0,-999,0.00,,,0.30,,2013-03-02 01:30:00,
2013-03-01 18:02:00,51.0,-99.9,-100.00,North,-999,-999.0,-999.0,-999,0.00,,,0.30,,2013-03-02 02:02:00,
2013-03-01 18:12:00,51.0,-99.9,-100.00,North,-999,-999.0,-999.0,-999,0.00,,,0.30,,2013-03-02 02:12:00,
2013-03-01 18:22:00,51.0,-99.9,-100.00,North,-999,-999.0,-999.0,-999,0.00,,,0.30,,2013-03-02 02:22:00,
2013-03-01 19:30:00,50.0,-99.9,-100.00,North,-999,-999.0,-999.0,-999,0.00,,,0.22,,2013-03-02 03:30:00,
2013-03-01 20:02:00,50.0,-99.9,-100.00,North,-999,-999.0,-999.0,-999,0.00,,,0.22,,2013-03-02 04:02:00,
2013-03-01 20:12:00,50.0,-99.9,-100.00,North,-999,-999.0,-999.0,-999,0.00,,,0.22,,2013-03-02 04:12:00,
2013-03-01 20:22:00,50.0,-99.9,-100.00,North,-999,-999.0,-999.0,-999,0.00,,,0.22,,2013-03-02 04:22:00,
2013-03-01 20:30:00,50.0,-99.9,-100.00,North,-999,-999.0,-999.0,-999,0.00,,,0.22,,2013-03-02 04:30:00,
2013-03-01 21:02:00,50.0,-99.9,-100.00,North,-999,-999.0,-999.0,-999,0.00,,,0.22,,2013-03-02 05:02:00,
2013-03-01 21:13:00,50.0,-99.9,-100.00,North,-999,-999.0,-999.0,-999,0.00,,,0.22,,2013-03-02 05:13:00,
2013-03-01 21:23:00,50.0,-99.9,-100.00,North,-999,-999.0,-999.0,-999,0.00,,,0.22,,2013-03-02 05:23:00,
2013-03-01 21:30:00,50.0,-99.9,-100.00,North,-999,-999.0,-999.0,-999,0.00,,,0.21,,2013-03-02 05:30:00,
2013-03-01 22:02:00,50.0,-99.9,-100.00,North,-999,-999.0,-999.0,-999,0.00,,,0.21,,2013-03-02 06:02:00,
2013-03-01 22:11:00,50.0,-99.9,-100.00,North,-999,-999.0,-999.0,-999,0.00,,,0.21,,2013-03-02 06:11:00,
2013-03-01 22:22:00,50.0,-99.9,-100.00,North,-999,-999.0,-999.0,-999,0.00,,,0.21,,2013-03-02 06:22:00,
2013-03-01 22:30:00,49.0,-99.9,-100.00,North,-999,-999.0,-999.0,-999,0.00,,,0.20,,2013-03-02 06:30:00,
2013-03-01 23:02:00,49.0,-99.9,-100.00,North,-999,-999.0,-999.0,-999,0.00,,,0.20,,2013-03-02 07:02:00,
2013-03-01 23:11:00,49.0,-99.9,-100.00,North,-999,-999.0,-999.0,-999,0.00,,,0.20,,2013-03-02 07:11:00,
2013-03-01 23:22:00,49.0,-99.9,-100.00,North,-999,-999.0,-999.0,-999,0.00,,,0.20,,2013-03-02 07:22:00,
2013-03-01 23:30:00,50.0,-99.9,-100.00,North,-999,-999.0,-999.0,-999,0.00,,,0.12,,2013-03-02 07:30:00,